| time (UTC) | temp C | wind direction | speed KPH | gust KPH | rain 1hr cm | rain 24hr cm | rain mn cm | humidity % | barometer mb |
| 20260507003005 | 8 | 257 | 0.0 | 4.8 | 0.13 | 0.99 | 0.53 | 90 | 1008.6 |
| 20260507002505 | 8 | 302 | 1.6 | 4.8 | 0.13 | 0.97 | 0.51 | 90 | 1008.6 |
| 20260507000505 | 8 | 335 | 4.8 | 12.9 | 0.13 | 0.91 | 0.48 | 90 | 1008.7 |
| 20260507000006 | 9 | 329 | 3.2 | 9.7 | 0.13 | 0.89 | 0.46 | 90 | 1008.7 |
| 20260506235004 | 9 | 313 | 3.2 | 9.7 | 0.15 | 0.89 | 0.43 | 90 | 1008.7 |
| 20260506234504 | 9 | 325 | 0.0 | 4.8 | 0.15 | 0.89 | 0.43 | 90 | 1008.6 |
| 20260506234004 | 9 | 327 | 3.2 | 4.8 | 0.18 | 0.89 | 0.43 | 90 | 1008.7 |
| 20260506233505 | 9 | 23 | 3.2 | 4.8 | 0.20 | 0.89 | 0.43 | 90 | 1008.6 |
| 20260506233005 | 9 | 294 | 1.6 | 8.0 | 0.23 | 0.89 | 0.43 | 90 | 1008.5 |
| 20260506232504 | 9 | 338 | 3.2 | 4.8 | 0.25 | 0.86 | 0.41 | 90 | 1008.6 |
| 20260506232005 | 9 | 314 | 3.2 | 4.8 | 0.28 | 0.84 | 0.38 | 90 | 1008.5 |
| 20260506231505 | 9 | 331 | 1.6 | 4.8 | 0.33 | 0.84 | 0.38 | 90 | 1008.5 |
| 20260506231005 | 9 | 337 | 3.2 | 8.0 | 0.33 | 0.81 | 0.36 | 90 | 1008.4 |
| 20260506230504 | 10 | 301 | 3.2 | 4.8 | 0.33 | 0.81 | 0.36 | 90 | 1008.3 |
| 20260506230005 | 10 | 330 | 4.8 | 9.7 | 0.33 | 0.79 | 0.33 | 90 | 1008.3 |
| 20260506224504 | 10 | 316 | 3.2 | 8.0 | 0.33 | 0.74 | 0.28 | 90 | 1008.2 |
| 20260506223005 | 10 | 284 | 3.2 | 9.7 | 0.30 | 0.66 | 0.18 | 89 | 1008.1 |
| 20260506221504 | 10 | 306 | 1.6 | 4.8 | 0.23 | 0.61 | 0.05 | 89 | 1007.9 |
| 20260506221004 | 10 | 277 | 3.2 | 9.7 | 0.23 | 0.61 | 0.05 | 89 | 1007.9 |
| 20260506220005 | 10 | 307 | 3.2 | 4.8 | 0.23 | 0.61 | 0.00 | 89 | 1007.8 |
| 20260506215504 | 10 | 5 | 3.2 | 8.0 | 0.20 | 0.61 | 0.61 | 89 | 1007.7 |
| 20260506215006 | 10 | 304 | 3.2 | 12.9 | 0.18 | 0.61 | 0.58 | 89 | 1007.7 |
| 20260506214505 | 10 | 343 | 1.6 | 8.0 | 0.18 | 0.64 | 0.56 | 89 | 1007.6 |
| 20260506214005 | 10 | 300 | 4.8 | 12.9 | 0.15 | 0.61 | 0.53 | 89 | 1007.7 |
| 20260506213004 | 11 | 299 | 3.2 | 4.8 | 0.13 | 0.58 | 0.51 | 89 | 1007.5 |
| 20260506212504 | 11 | 334 | 3.2 | 4.8 | 0.13 | 0.61 | 0.51 | 89 | 1007.5 |
| 20260506211504 | 11 | 309 | 3.2 | 4.8 | 0.10 | 0.58 | 0.48 | 89 | 1007.4 |
| 20260506211004 | 11 | 260 | 1.6 | 4.8 | 0.08 | 0.56 | 0.46 | 89 | 1007.3 |
| 20260506210504 | 11 | 252 | 0.0 | 3.2 | 0.05 | 0.51 | 0.43 | 89 | 1007.3 |
| 20260506210005 | 11 | 259 | 0.0 | 3.2 | 0.03 | 0.51 | 0.41 | 89 | 1007.2 |
| 20260506205504 | 11 | 259 | 1.6 | 3.2 | 0.03 | 0.51 | 0.41 | 89 | 1007.3 |
| 20260506205003 | 11 | 283 | 1.6 | 4.8 | 0.05 | 0.51 | 0.41 | 89 | 1007.3 |
| 20260506203504 | 11 | 229 | 1.6 | 3.2 | 0.05 | 0.48 | 0.38 | 89 | 1007.2 |
| 20260506203004 | 11 | 230 | 1.6 | 4.8 | 0.08 | 0.48 | 0.38 | 89 | 1007.1 |
| 20260506202504 | 11 | 228 | 0.0 | 3.2 | 0.08 | 0.48 | 0.38 | 89 | 1007.1 |
| 20260506202004 | 11 | 228 | 0.0 | 3.2 | 0.08 | 0.48 | 0.38 | 89 | 1007.1 |
| 20260506201004 | 11 | 228 | 0.0 | 1.6 | 0.08 | 0.48 | 0.38 | 89 | 1007.0 |
| 20260506200504 | 11 | 228 | 0.0 | 4.8 | 0.10 | 0.48 | 0.38 | 89 | 1007.0 |
| 20260506200005 | 11 | 211 | 1.6 | 3.2 | 0.13 | 0.48 | 0.38 | 89 | 1007.0 |
| 20260506195504 | 11 | 211 | 1.6 | 3.2 | 0.13 | 0.48 | 0.38 | 89 | 1006.9 |
| 20260506195004 | 11 | 210 | 1.6 | 3.2 | 0.13 | 0.46 | 0.36 | 88 | 1006.8 |
| 20260506194504 | 11 | 209 | 1.6 | 3.2 | 0.13 | 0.43 | 0.33 | 88 | 1006.8 |
| 20260506194004 | 11 | 210 | 0.0 | 3.2 | 0.15 | 0.43 | 0.33 | 88 | 1006.8 |
| 20260506193504 | 11 | 139 | 1.6 | 3.2 | 0.15 | 0.43 | 0.33 | 88 | 1006.7 |
| 20260506193004 | 11 | 224 | 1.6 | 4.8 | 0.13 | 0.41 | 0.30 | 88 | 1006.6 |
| 20260506192504 | 11 | 226 | 1.6 | 3.2 | 0.13 | 0.41 | 0.30 | 88 | 1006.6 |
| 20260506192004 | 11 | 227 | 1.6 | 4.8 | 0.13 | 0.41 | 0.30 | 88 | 1006.5 |
| 20260506191504 | 11 | 232 | 0.0 | 1.6 | 0.13 | 0.41 | 0.30 | 87 | 1006.4 |
| 20260506191004 | 11 | 233 | 1.6 | 4.8 | 0.13 | 0.41 | 0.30 | 87 | 1006.3 |
| 20260506190504 | 11 | 252 | 3.2 | 8.0 | 0.10 | 0.38 | 0.28 | 87 | 1006.3 |
| 20260506190006 | 11 | 231 | 3.2 | 8.0 | 0.08 | 0.36 | 0.25 | 86 | 1006.3 |
| 20260506185504 | 11 | 222 | 1.6 | 4.8 | 0.08 | 0.36 | 0.25 | 86 | 1006.3 |
| 20260506185004 | 12 | 258 | 0.0 | 3.2 | 0.05 | 0.33 | 0.23 | 85 | 1006.3 |
| 20260506184004 | 12 | 286 | 3.2 | 9.7 | 0.00 | 0.28 | 0.18 | 81 | 1006.1 |
| 20260506183504 | 12 | 212 | 1.6 | 4.8 | 0.00 | 0.28 | 0.18 | 79 | 1006.0 |
| 20260506183005 | 12 | 224 | 4.8 | 9.7 | 0.00 | 0.28 | 0.18 | 79 | 1005.9 |
| 20260506182504 | 13 | 211 | 8.0 | 11.3 | 0.00 | 0.28 | 0.18 | 78 | 1005.8 |
| 20260506182004 | 13 | 214 | 3.2 | 9.7 | 0.00 | 0.28 | 0.18 | 78 | 1005.9 |
| 20260506181504 | 13 | 219 | 4.8 | 11.3 | 0.00 | 0.28 | 0.18 | 77 | 1005.8 |
| 20260506180504 | 13 | 211 | 4.8 | 8.0 | 0.00 | 0.28 | 0.18 | 77 | 1005.7 |
| 20260506180006 | 13 | 203 | 4.8 | 12.9 | 0.00 | 0.28 | 0.18 | 77 | 1005.6 |
| 20260506175504 | 13 | 225 | 4.8 | 11.3 | 0.00 | 0.28 | 0.18 | 76 | 1005.6 |
| 20260506175005 | 13 | 205 | 4.8 | 14.5 | 0.00 | 0.28 | 0.18 | 76 | 1005.5 |
| 20260506174503 | 13 | 218 | 8.0 | 12.9 | 0.00 | 0.28 | 0.18 | 75 | 1005.4 |
| 20260506173504 | 13 | 218 | 8.0 | 12.9 | 0.00 | 0.28 | 0.18 | 75 | 1005.3 |
| 20260506173005 | 13 | 211 | 8.0 | 11.3 | 0.00 | 0.28 | 0.18 | 74 | 1005.3 |
| 20260506172504 | 14 | 200 | 8.0 | 11.3 | 0.00 | 0.28 | 0.18 | 75 | 1005.2 |
| 20260506172004 | 14 | 213 | 9.7 | 12.9 | 0.00 | 0.28 | 0.18 | 74 | 1005.2 |
| 20260506171503 | 14 | 216 | 8.0 | 12.9 | 0.00 | 0.30 | 0.18 | 74 | 1005.1 |
| 20260506171004 | 14 | 208 | 8.0 | 19.3 | 0.00 | 0.30 | 0.18 | 73 | 1005.1 |
| 20260506170504 | 15 | 215 | 9.7 | 19.3 | 0.00 | 0.30 | 0.18 | 72 | 1005.0 |
| 20260506170004 | 15 | 212 | 8.0 | 19.3 | 0.00 | 0.30 | 0.18 | 70 | 1004.9 |
| 20260506165504 | 15 | 199 | 3.2 | 8.0 | 0.00 | 0.30 | 0.18 | 70 | 1004.9 |
| 20260506165004 | 15 | 213 | 3.2 | 4.8 | 0.00 | 0.30 | 0.18 | 69 | 1004.8 |
| 20260506164003 | 15 | 213 | 3.2 | 8.0 | 0.00 | 0.30 | 0.18 | 69 | 1004.9 |
| 20260506163503 | 15 | 212 | 3.2 | 9.7 | 0.00 | 0.33 | 0.18 | 68 | 1005.0 |
| 20260506163004 | 15 | 227 | 4.8 | 9.7 | 0.00 | 0.33 | 0.18 | 69 | 1004.9 |
| 20260506162504 | 15 | 224 | 6.4 | 12.9 | 0.00 | 0.33 | 0.18 | 68 | 1005.0 |
| 20260506162004 | 15 | 223 | 6.4 | 12.9 | 0.00 | 0.36 | 0.18 | 68 | 1005.1 |
| 20260506161504 | 15 | 229 | 4.8 | 14.5 | 0.00 | 0.36 | 0.18 | 67 | 1005.1 |
| 20260506160504 | 15 | 208 | 6.4 | 9.7 | 0.00 | 0.38 | 0.18 | 66 | 1005.1 |
| 20260506160004 | 15 | 205 | 4.8 | 11.3 | 0.00 | 0.41 | 0.18 | 67 | 1005.2 |
| 20260506155004 | 16 | 220 | 6.4 | 16.1 | 0.00 | 0.43 | 0.18 | 65 | 1005.1 |
| 20260506154504 | 16 | 214 | 4.8 | 9.7 | 0.00 | 0.46 | 0.18 | 64 | 1005.1 |
| 20260506153004 | 16 | 226 | 4.8 | 9.7 | 0.00 | 0.51 | 0.18 | 64 | 1005.1 |
| 20260506152504 | 16 | 221 | 8.0 | 11.3 | 0.00 | 0.51 | 0.18 | 65 | 1005.0 |
| 20260506152004 | 16 | 226 | 6.4 | 16.1 | 0.00 | 0.53 | 0.18 | 64 | 1005.0 |
| 20260506151003 | 16 | 209 | 8.0 | 11.3 | 0.00 | 0.56 | 0.18 | 64 | 1005.0 |
| 20260506150504 | 16 | 221 | 8.0 | 14.5 | 0.00 | 0.58 | 0.18 | 64 | 1004.8 |
| 20260506150005 | 16 | 247 | 3.2 | 9.7 | 0.00 | 0.61 | 0.18 | 64 | 1004.8 |
| 20260506145503 | 16 | 273 | 1.6 | 9.7 | 0.00 | 0.64 | 0.18 | 63 | 1004.7 |
| 20260506144504 | 16 | 185 | 8.0 | 12.9 | 0.00 | 0.71 | 0.18 | 62 | 1004.7 |
| 20260506144004 | 16 | 253 | 6.4 | 14.5 | 0.00 | 0.71 | 0.18 | 60 | 1004.8 |
| 20260506143503 | 16 | 222 | 9.7 | 14.5 | 0.00 | 0.76 | 0.18 | 62 | 1004.7 |
| 20260506143004 | 17 | 226 | 8.0 | 14.5 | 0.00 | 0.79 | 0.18 | 61 | 1004.7 |
| 20260506142504 | 17 | 226 | 4.8 | 14.5 | 0.00 | 0.79 | 0.18 | 61 | 1004.7 |
| 20260506142004 | 17 | 214 | 1.6 | 9.7 | 0.00 | 0.79 | 0.18 | 64 | 1004.7 |
| 20260506141503 | 17 | 214 | 6.4 | 16.1 | 0.00 | 0.79 | 0.18 | 62 | 1004.7 |
| 20260506141004 | 17 | 182 | 4.8 | 14.5 | 0.00 | 0.79 | 0.18 | 60 | 1004.7 |
| 20260506140504 | 18 | 5 | 3.2 | 14.5 | 0.00 | 0.79 | 0.18 | 60 | 1004.6 |
| 20260506140004 | 17 | 206 | 8.0 | 11.3 | 0.00 | 0.79 | 0.18 | 61 | 1004.7 |
| 20260506135504 | 17 | 184 | 6.4 | 19.3 | 0.00 | 0.79 | 0.18 | 62 | 1004.7 |
| 20260506134505 | 17 | 204 | 8.0 | 12.9 | 0.00 | 0.79 | 0.18 | 62 | 1004.8 |
| 20260506133004 | 17 | 303 | 3.2 | 8.0 | 0.00 | 0.79 | 0.18 | 65 | 1004.9 |
| 20260506132504 | 17 | 214 | 8.0 | 12.9 | 0.00 | 0.79 | 0.18 | 64 | 1004.9 |
| 20260506132005 | 17 | 219 | 8.0 | 16.1 | 0.00 | 0.79 | 0.18 | 62 | 1005.0 |
| 20260506131504 | 17 | 255 | 6.4 | 16.1 | 0.00 | 0.79 | 0.18 | 63 | 1004.9 |
| 20260506131004 | 17 | 171 | 4.8 | 12.9 | 0.00 | 0.79 | 0.18 | 64 | 1004.8 |
| 20260506130503 | 17 | 205 | 4.8 | 11.3 | 0.00 | 0.79 | 0.18 | 64 | 1004.8 |
| 20260506125006 | 17 | 344 | 1.6 | 8.0 | 0.00 | 0.79 | 0.18 | 65 | 1004.8 |
| 20260506124506 | 17 | 233 | 4.8 | 11.3 | 0.00 | 0.79 | 0.18 | 62 | 1004.8 |
| 20260506124005 | 17 | 357 | 3.2 | 19.3 | 0.00 | 0.79 | 0.18 | 64 | 1004.7 |
| 20260506123506 | 17 | 310 | 3.2 | 9.7 | 0.00 | 0.79 | 0.18 | 63 | 1004.7 |
| 20260506122506 | 17 | 209 | 8.0 | 16.1 | 0.00 | 0.79 | 0.18 | 65 | 1004.8 |
| 20260506122006 | 16 | 198 | 9.7 | 14.5 | 0.00 | 0.79 | 0.18 | 66 | 1004.9 |
| 20260506121506 | 16 | 233 | 8.0 | 19.3 | 0.00 | 0.79 | 0.18 | 65 | 1004.9 |
| 20260506121006 | 17 | 207 | 4.8 | 14.5 | 0.00 | 0.79 | 0.18 | 65 | 1004.9 |
| 20260506120506 | 17 | 210 | 4.8 | 12.9 | 0.00 | 0.79 | 0.18 | 64 | 1005.0 |
| 20260506115006 | 17 | 327 | 3.2 | 14.5 | 0.00 | 0.79 | 0.18 | 68 | 1005.0 |
| 20260506114505 | 17 | 187 | 4.8 | 14.5 | 0.00 | 0.79 | 0.18 | 64 | 1005.0 |
| 20260506114006 | 17 | 194 | 1.6 | 9.7 | 0.00 | 0.79 | 0.18 | 67 | 1005.0 |
| 20260506113505 | 16 | 329 | 9.7 | 19.3 | 0.00 | 0.79 | 0.18 | 67 | 1005.0 |
| 20260506113005 | 16 | 322 | 4.8 | 19.3 | 0.00 | 0.79 | 0.18 | 68 | 1005.1 |
| 20260506112505 | 16 | 74 | 4.8 | 14.5 | 0.00 | 0.79 | 0.18 | 68 | 1005.0 |
| 20260506112005 | 16 | 198 | 4.8 | 16.1 | 0.00 | 0.79 | 0.18 | 69 | 1005.1 |
| 20260506111506 | 16 | 355 | 3.2 | 8.0 | 0.00 | 0.79 | 0.18 | 68 | 1005.2 |
| 20260506111006 | 17 | 230 | 8.0 | 22.5 | 0.00 | 0.79 | 0.18 | 65 | 1005.2 |
| 20260506110006 | 16 | 201 | 9.7 | 19.3 | 0.00 | 0.79 | 0.18 | 68 | 1005.3 |
| 20260506105506 | 16 | 217 | 9.7 | 16.1 | 0.00 | 0.79 | 0.18 | 69 | 1005.3 |
| 20260506105006 | 16 | 201 | 4.8 | 9.7 | 0.00 | 0.79 | 0.18 | 69 | 1005.2 |
| 20260506104006 | 16 | 200 | 8.0 | 19.3 | 0.00 | 0.79 | 0.18 | 68 | 1005.2 |
| 20260506103506 | 17 | 220 | 4.8 | 9.7 | 0.00 | 0.79 | 0.18 | 67 | 1005.3 |
| 20260506103006 | 16 | 202 | 8.0 | 14.5 | 0.00 | 0.79 | 0.18 | 68 | 1005.2 |
| 20260506102506 | 16 | 213 | 4.8 | 16.1 | 0.00 | 0.79 | 0.18 | 68 | 1005.2 |
| 20260506102005 | 15 | 225 | 3.2 | 8.0 | 0.00 | 0.79 | 0.18 | 68 | 1005.3 |
| 20260506101506 | 16 | 218 | 8.0 | 16.1 | 0.00 | 0.79 | 0.18 | 70 | 1005.4 |
| 20260506101006 | 16 | 228 | 6.4 | 16.1 | 0.00 | 0.79 | 0.18 | 69 | 1005.4 |
| 20260506100505 | 16 | 197 | 9.7 | 14.5 | 0.00 | 0.79 | 0.18 | 69 | 1005.2 |
| 20260506100006 | 16 | 204 | 11.3 | 20.9 | 0.00 | 0.79 | 0.18 | 66 | 1005.2 |
| 20260506095506 | 16 | 238 | 8.0 | 16.1 | 0.00 | 0.79 | 0.18 | 70 | 1005.3 |
| 20260506095005 | 16 | 214 | 11.3 | 16.1 | 0.00 | 0.79 | 0.18 | 71 | 1005.3 |
| 20260506094506 | 16 | 200 | 9.7 | 19.3 | 0.00 | 0.79 | 0.18 | 71 | 1005.3 |
| 20260506094006 | 15 | 216 | 3.2 | 12.9 | 0.00 | 0.79 | 0.18 | 71 | 1005.4 |
| 20260506093506 | 15 | 217 | 1.6 | 4.8 | 0.00 | 0.79 | 0.18 | 75 | 1005.4 |
| 20260506093005 | 15 | 235 | 3.2 | 11.3 | 0.00 | 0.79 | 0.18 | 72 | 1005.5 |
| 20260506092506 | 15 | 221 | 4.8 | 9.7 | 0.00 | 0.79 | 0.18 | 74 | 1005.4 |
| 20260506092005 | 15 | 193 | 1.6 | 9.7 | 0.00 | 0.79 | 0.18 | 75 | 1005.5 |
| 20260506091505 | 15 | 220 | 4.8 | 11.3 | 0.00 | 0.79 | 0.18 | 73 | 1005.5 |
| 20260506091005 | 15 | 251 | 9.7 | 16.1 | 0.00 | 0.79 | 0.18 | 73 | 1005.5 |
| 20260506090506 | 15 | 219 | 4.8 | 19.3 | 0.00 | 0.79 | 0.18 | 73 | 1005.5 |
| 20260506090007 | 15 | 233 | 8.0 | 16.1 | 0.00 | 0.79 | 0.18 | 71 | 1005.5 |
| 20260506085506 | 15 | 222 | 8.0 | 22.5 | 0.00 | 0.79 | 0.18 | 72 | 1005.5 |
| 20260506085005 | 15 | 225 | 6.4 | 14.5 | 0.00 | 0.79 | 0.18 | 73 | 1005.5 |
| 20260506084505 | 15 | 207 | 8.0 | 12.9 | 0.00 | 0.79 | 0.18 | 74 | 1005.4 |
| 20260506084006 | 15 | 229 | 4.8 | 12.9 | 0.00 | 0.79 | 0.18 | 78 | 1005.5 |
| 20260506083509 | 15 | 204 | 4.8 | 14.5 | 0.00 | 0.79 | 0.18 | 77 | 1005.4 |
| 20260506083005 | 14 | 280 | 3.2 | 8.0 | 0.00 | 0.79 | 0.18 | 78 | 1005.3 |
| 20260506082506 | 15 | 254 | 6.4 | 12.9 | 0.00 | 0.79 | 0.18 | 78 | 1005.2 |
| 20260506082005 | 15 | 197 | 1.6 | 4.8 | 0.00 | 0.79 | 0.18 | 78 | 1005.1 |
| 20260506081506 | 15 | 336 | 3.2 | 11.3 | 0.00 | 0.79 | 0.18 | 75 | 1005.1 |
| 20260506081006 | 15 | 244 | 4.8 | 9.7 | 0.00 | 0.79 | 0.18 | 78 | 1005.0 |
| 20260506080506 | 15 | 355 | 1.6 | 12.9 | 0.00 | 0.79 | 0.18 | 77 | 1005.0 |
| 20260506073505 | 14 | 232 | 9.7 | 11.3 | 0.00 | 0.79 | 0.18 | 79 | 1005.1 |
| 20260506073006 | 14 | 200 | 4.8 | 11.3 | 0.00 | 0.79 | 0.18 | 83 | 1005.1 |
| 20260506072505 | 13 | 221 | 8.0 | 16.1 | 0.00 | 0.79 | 0.18 | 81 | 1005.2 |
| 20260506071506 | 13 | 205 | 4.8 | 11.3 | 0.00 | 0.79 | 0.18 | 82 | 1005.2 |
| 20260506071005 | 13 | 226 | 4.8 | 9.7 | 0.00 | 0.79 | 0.18 | 83 | 1005.2 |
| 20260506070505 | 13 | 211 | 6.4 | 11.3 | 0.00 | 0.79 | 0.18 | 83 | 1005.3 |
| 20260506062005 | 12 | 224 | 3.2 | 4.8 | 0.00 | 0.79 | 0.18 | 86 | 1005.2 |
| 20260506061506 | 12 | 306 | 3.2 | 4.8 | 0.00 | 0.79 | 0.18 | 86 | 1005.2 |
| 20260506061006 | 12 | 112 | 1.6 | 3.2 | 0.00 | 0.79 | 0.18 | 87 | 1005.3 |
| 20260506050505 | 11 | 211 | 3.2 | 4.8 | 0.00 | 0.79 | 0.18 | 90 | 1005.3 |
| 20260506045005 | 11 | 225 | 0.0 | 4.8 | 0.00 | 0.79 | 0.18 | 90 | 1005.2 |
| 20260506044505 | 11 | 221 | 1.6 | 4.8 | 0.00 | 0.79 | 0.18 | 91 | 1005.1 |
| 20260506044005 | 10 | 219 | 1.6 | 4.8 | 0.00 | 0.79 | 0.18 | 90 | 1005.2 |
| 20260506043505 | 10 | 220 | 3.2 | 4.8 | 0.00 | 0.79 | 0.18 | 90 | 1005.2 |
| 20260506043006 | 10 | 205 | 1.6 | 3.2 | 0.00 | 0.79 | 0.18 | 90 | 1005.2 |
| 20260506042505 | 10 | 209 | 3.2 | 4.8 | 0.00 | 0.79 | 0.18 | 90 | 1005.3 |
| 20260506042005 | 10 | 209 | 1.6 | 4.8 | 0.00 | 0.79 | 0.18 | 90 | 1005.3 |
| 20260506041505 | 10 | 269 | 0.0 | 3.2 | 0.00 | 0.79 | 0.18 | 90 | 1005.2 |
| 20260506041005 | 11 | 204 | 1.6 | 8.0 | 0.00 | 0.79 | 0.18 | 90 | 1005.3 |
| 20260506040505 | 11 | 219 | 3.2 | 11.3 | 0.00 | 0.79 | 0.18 | 90 | 1005.3 |
| 20260506040006 | 10 | 217 | 3.2 | 8.0 | 0.00 | 0.79 | 0.18 | 90 | 1005.3 |
| 20260506035505 | 11 | 255 | 3.2 | 11.3 | 0.00 | 0.79 | 0.18 | 90 | 1005.3 |
| 20260506035005 | 11 | 216 | 1.6 | 3.2 | 0.00 | 0.79 | 0.18 | 90 | 1005.3 |
| 20260506034505 | 11 | 217 | 1.6 | 4.8 | 0.00 | 0.79 | 0.18 | 90 | 1005.3 |
| 20260506034006 | 11 | 223 | 1.6 | 4.8 | 0.00 | 0.79 | 0.18 | 90 | 1005.3 |
| 20260506033505 | 11 | 239 | 1.6 | 4.8 | 0.00 | 0.79 | 0.18 | 90 | 1005.4 |
| 20260506033006 | 11 | 229 | 4.8 | 11.3 | 0.00 | 0.79 | 0.18 | 91 | 1005.5 |
| 20260506032006 | 11 | 209 | 3.2 | 4.8 | 0.00 | 0.79 | 0.18 | 91 | 1005.5 |
| 20260506031505 | 11 | 226 | 3.2 | 8.0 | 0.00 | 0.79 | 0.18 | 91 | 1005.5 |
| 20260506031005 | 10 | 199 | 1.6 | 4.8 | 0.00 | 0.79 | 0.18 | 91 | 1005.6 |
| 20260506030506 | 10 | 199 | 3.2 | 4.8 | 0.00 | 0.79 | 0.18 | 91 | 1005.6 |
| 20260506030006 | 10 | 204 | 3.2 | 4.8 | 0.00 | 0.79 | 0.18 | 91 | 1005.5 |
| 20260506025506 | 10 | 226 | 1.6 | 4.8 | 0.00 | 0.79 | 0.18 | 91 | 1005.7 |
| 20260506025006 | 10 | 207 | 0.0 | 3.2 | 0.00 | 0.79 | 0.18 | 90 | 1005.6 |
| 20260506024506 | 10 | 207 | 1.6 | 4.8 | 0.00 | 0.79 | 0.18 | 91 | 1005.7 |
| 20260506024005 | 10 | 209 | 1.6 | 4.8 | 0.00 | 0.79 | 0.18 | 90 | 1005.7 |
| 20260506023505 | 10 | 204 | 1.6 | 4.8 | 0.00 | 0.79 | 0.18 | 90 | 1005.7 |
| 20260506023007 | 10 | 217 | 3.2 | 4.8 | 0.00 | 0.79 | 0.18 | 90 | 1005.7 |
| 20260506022505 | 10 | 218 | 1.6 | 4.8 | 0.00 | 0.79 | 0.18 | 90 | 1005.6 |
| 20260506022005 | 10 | 217 | 1.6 | 4.8 | 0.00 | 0.79 | 0.18 | 90 | 1005.7 |
| 20260506021505 | 10 | 224 | 3.2 | 8.0 | 0.00 | 0.79 | 0.18 | 90 | 1005.7 |
| 20260506021006 | 10 | 203 | 4.8 | 4.8 | 0.00 | 0.79 | 0.18 | 90 | 1005.7 |
| 20260506020505 | 10 | 223 | 1.6 | 4.8 | 0.00 | 0.79 | 0.18 | 90 | 1005.7 |
| 20260506020006 | 10 | 216 | 3.2 | 4.8 | 0.00 | 0.79 | 0.18 | 90 | 1005.7 |
| 20260506015505 | 10 | 205 | 0.0 | 3.2 | 0.00 | 0.79 | 0.18 | 90 | 1005.7 |
| 20260506015006 | 10 | 205 | 1.6 | 3.2 | 0.00 | 0.79 | 0.18 | 90 | 1005.7 |
| 20260506014005 | 10 | 219 | 0.0 | 3.2 | 0.00 | 0.79 | 0.18 | 90 | 1005.8 |
| 20260506012505 | 11 | 226 | 1.6 | 4.8 | 0.00 | 0.79 | 0.18 | 90 | 1005.9 |
| 20260506012005 | 11 | 223 | 3.2 | 8.0 | 0.00 | 0.79 | 0.18 | 90 | 1005.9 |
| 20260506011505 | 11 | 251 | 3.2 | 11.3 | 0.00 | 0.79 | 0.18 | 90 | 1006.0 |
| 20260506011006 | 11 | 201 | 3.2 | 4.8 | 0.00 | 0.79 | 0.18 | 90 | 1006.0 |
| 20260506010005 | 11 | 207 | 3.2 | 4.8 | 0.00 | 0.79 | 0.18 | 90 | 1006.0 |
| 20260506005505 | 11 | 226 | 1.6 | 4.8 | 0.00 | 0.79 | 0.18 | 90 | 1006.0 |
| 20260506005005 | 11 | 215 | 3.2 | 9.7 | 0.00 | 0.79 | 0.18 | 90 | 1006.0 |
| 20260506004507 | 11 | 223 | 1.6 | 4.8 | 0.00 | 0.79 | 0.18 | 90 | 1006.0 |
| 20260506004004 | 11 | 193 | 3.2 | 4.8 | 0.03 | 0.79 | 0.18 | 90 | 1006.1 |
| 20260506003505 | 11 | 217 | 1.6 | 4.8 | 0.03 | 0.79 | 0.18 | 90 | 1006.2 |